Location: Rodalben
(49.2398°N, 7.6378°E)
Time: 20:14:33
(UTC+00:00)

Daily predictions for brighter satellites

Satellite Brightness Start Highest point End
(mag) Time Altitude Azimuth Time Altitude Azimuth Time Altitude Azimuth
Cosmos 2208 Rocket 4.4 16:03:46 10° S 16:08:46 45° ESE 16:13:51 10° NNE
Cosmos 2219 Rocket 2.3 16:07:36 10° SSW 16:13:10 63° ESE 16:18:45 10° NNE
Cosmos 1500 Rocket 3.9 16:11:33 10° N 16:15:46 45° ENE 16:20:00 10° SSE
Cosmos 2221 2.8 16:11:40 10° SSE 16:15:50 46° E 16:19:59 10° NNE
Abrixas rocket 2.5 16:13:38 10° W 16:16:21 51° SSW 16:19:02 10° ESE
CZ-4B R/B 3.3 16:11:42 10° SE 16:16:52 52° ENE 16:22:00 10° N
Cosmos 1980 Rocket 4.4 16:15:15 10° WNW 16:18:10 14° NNW 16:21:06 10° N
SL-16 R/B 3.8 16:13:39 10° WSW 16:18:34 30° NW 16:23:31 10° NNE
Cosmos 1939 Rocket 4.3 16:16:23 10° E 16:18:50 16° ENE 16:21:19 10° NNE
ERS-2 4.0 16:17:19 10° ENE 16:19:16 14° E 16:21:12 10° ESE
NOAA 12 4.3 16:15:40 10° SE 16:20:48 51° ENE 16:25:58 10° N
Cosmos 2237 Rocket 3.2 16:16:47 10° SSE 16:21:21 26° ESE 16:25:57 10° NE
ISS -1.8 16:21:04 10° S 16:23:23 17° SE 16:25:42 10° E
Cosmos 1869 3.3 16:20:37 10° S 16:24:39 85° E 16:28:46 10° N
USA 267 3.4 16:20:58 10° E 16:27:20 60° NNE 16:33:45 10° WNW
CZ-4B R/B 2.9 16:26:56 10° NE 16:28:51 16° E 16:30:48 10° SE
Cosmos 2322 3.9 16:23:32 10° SSW 16:29:12 79° WNW 16:34:56 10° NNE
YAOGAN 1 4.3 16:27:49 10° E 16:29:37 12° NE 16:31:24 10° NNE
Cosmos 540 Rocket 3.5 16:24:33 10° SSW 16:29:42 90° E 16:34:52 10° NNE
Cosmos 2369 Rocket 3.9 16:28:54 10° N 16:32:03 15° NNE 16:34:50 11° ENE
NOSS 2-1 (E) 4.3 16:28:51 10° NW 16:33:51 86° NE 16:40:58 10° SE
Okean-O 4.1 16:31:59 10° E 16:34:45 16° ENE 16:37:31 10° NNE
AQUARIUS 4.2 16:30:39 10° SSE 16:35:03 58° ENE 16:39:29 10° N
Meteor 2-2 Rocket 4.4 16:30:05 10° S 16:36:00 68° E 16:41:51 10° NNE
COSMO-SKYMED 1 4.0 16:34:00 10° NE 16:36:57 18° E 16:39:54 10° SE
Cosmos 1743 Rocket 3.5 16:33:16 10° N 16:37:47 76° E 16:42:14 10° SSE
Cosmos 841 Rocket 3.6 16:32:45 10° SSW 16:38:00 81° WNW 16:43:15 10° NNE
Cosmos 1980 4.3 16:33:55 10° S 16:39:05 38° ESE 16:44:19 10° NE
CORIOLIS 4.2 16:34:04 10° SSE 16:39:24 65° ENE 16:44:48 10° N
Envisat 3.3 16:35:10 10° S 16:40:14 73° WSW 16:45:21 10° NNW
H-2A R/B 3.0 16:38:47 10° S 16:43:08 66° WSW 16:47:21 10° NNW
H-2A R/B 4.2 16:41:06 10° S 16:44:42 41° W 16:48:24 10° NNW
H-2A R/B 3.4 16:43:23 10° E 16:46:49 18° ENE 16:50:12 10° NNE
Okean O Rocket 1.5 16:43:10 10° SSE 16:47:30 77° ENE 16:51:54 10° NNW
Nadezhda 1 Rocket 4.0 16:41:40 10° S 16:47:54 65° E 16:54:15 10° NNE
Sich 1 3.4 16:45:27 10° N 16:49:37 40° ENE 16:53:45 10° SE
Cosmos 1842 Rocket 3.8 16:47:25 10° SSW 16:51:44 71° WNW 16:56:05 10° N
Cosmos 405 Rocket 2.8 16:50:09 10° NNW 16:54:02 81° W 16:57:58 10° S
Cosmos 2292 4.4 16:51:10 10° S 16:54:10 54° E 16:57:41 10° NNE
Cosmos 2297 4.3 16:51:17 10° NNW 16:56:30 35° NE 17:01:42 10° ESE
Cosmos 2154 Rocket 4.0 16:50:50 10° N 16:57:12 86° E 17:03:33 10° S
Cosmos 1805 Rocket 3.5 16:53:37 10° N 16:58:04 64° ENE 17:02:28 10° SSE
YAOGAN 6 3.8 16:56:57 10° S 17:00:30 46° W 17:04:02 10° NNW
Cosmos 1814 Rocket 4.3 16:55:34 10° SSW 17:00:53 70° WNW 17:06:13 10° NNE
Cosmos 1666 Rocket 4.0 16:59:57 10° N 17:04:03 37° ENE 17:08:08 10° SE
Cosmos 2341 Rocket 4.1 16:58:22 10° N 17:04:33 56° ENE 17:10:44 10° SSE
Cosmos 1943 Rocket 3.1 17:00:54 10° NNW 17:05:34 27° NE 17:07:56 20° E
SMAP 3.5 17:01:41 10° S 17:06:18 66° WSW 17:10:58 10° NNW
Helios 1A Rocket 3.8 17:03:46 10° ESE 17:07:10 27° ENE 17:10:36 10° N
Cosmos 2322 Rocket 4.3 17:03:34 10° W 17:07:37 19° NW 17:11:40 10° N
USA 281 3.3 17:01:25 10° SE 17:07:44 53° NE 17:14:04 10° NNW
SL-16 R/B 3.3 17:04:09 10° SSE 17:08:30 23° ESE 17:09:55 21° E
Cosmos 1151 Rocket 4.0 17:06:19 10° SE 17:09:44 24° E 17:09:51 24° E
ARGOS 4.2 17:15:45 23° ENE 17:16:08 23° ENE 17:20:17 10° N
NOSS 0 Rocket 3.9 17:12:40 10° SSW 17:18:56 85° ESE 17:24:41 13° NNE
Feng Yun 1-1 Rocket 4.2 17:13:50 10° SSE 17:19:39 77° ENE 17:25:21 10° NNW
CREW DRAGON DEMO-1 DEB 2.7 17:16:54 10° WNW 17:19:53 70° NNE 17:20:29 50° ENE
Cosmos 2285 Rocket 4.2 17:13:44 10° NNW 17:19:56 47° ENE 17:26:03 10° SE
Cosmos 1606 2.7 17:16:13 10° S 17:20:03 59° E 17:23:04 16° NNE
Cosmos 389 Rocket 2.5 17:16:47 10° S 17:20:07 50° E 17:21:15 33° NE
CZ-2C R/B 3.3 17:16:33 10° SE 17:21:20 41° ENE 17:25:56 10° N
Cosmos 2333 Rocket 3.3 17:16:49 10° WSW 17:22:13 43° NW 17:27:38 10° NNE
H-2A R/B 3.1 17:20:20 10° N 17:24:17 44° WNW 17:28:17 10° SW
SKYMED 2 3.7 17:22:23 18° NNE 17:25:24 49° E 17:29:36 10° S
Meteor 1-20 Rocket 4.3 17:20:01 10° N 17:25:48 57° ENE 17:31:32 10° SSE
Cosmos 1867 4.2 17:21:02 10° S 17:25:56 35° ESE 17:27:32 29° E
COSMOS 2428 3.6 17:21:52 10° SW 17:27:25 49° NW 17:33:00 10° NNE
Cosmos 1818 4.4 17:26:29 10° NW 17:31:49 53° WSW 17:37:05 10° SSE
SL-8 Rocket 3.9 17:26:19 10° N 17:32:32 68° ENE 17:38:45 10° SSE
Cosmos 2278 Rocket 3.4 17:29:24 10° NW 17:34:47 44° WSW 17:40:07 10° S
Cosmos 1633 Rocket 3.0 17:31:25 10° N 17:35:47 62° ENE 17:40:06 10° SSE
USA 215 3.2 17:32:16 26° ENE 17:36:17 76° SE 17:42:50 10° SW
EO 1 Delta rocket 4.4 17:32:48 10° NNE 17:37:49 53° E 17:43:57 10° S
Cosmos 2181 Rocket 4.0 17:31:45 10° S 17:38:04 61° E 17:44:21 10° NNE
CZ-4 R/B 1.4 17:37:52 41° ESE 17:38:50 52° ENE 17:42:44 10° N
SAR-Lupe-4 3.4 17:40:59 59° NE 17:41:26 68° ESE 17:45:00 10° S
Meteor 1-25 Rocket 4.1 17:36:30 10° N 17:42:06 71° ENE 17:47:44 10° SSE
Cosmos 1959 Rocket 4.4 17:35:46 10° N 17:42:07 67° ENE 17:48:26 10° SSE
CZ-2D R/B 3.1 17:42:39 10° SSE 17:46:28 90° W 17:50:19 10° NNW
Cosmos 2360 Rocket 4.4 17:45:41 10° WNW 17:49:21 17° NW 17:53:01 10° N
BREEZE-M DEB (TANK) 3.9 17:47:45 10° SW 17:48:48 21° SSW 17:48:48 21° SSW
Cosmos 1356 4.3 17:48:03 10° NNW 17:51:23 49° W 17:54:42 10° S
IRS-1C Rocket 4.2 17:46:41 10° S 17:51:58 76° WSW 17:57:17 10° NNW
ERS-2 2.8 17:50:53 21° N 17:53:08 53° WNW 17:56:42 10° SSW
Cosmos 1939 Rocket 3.5 17:49:36 10° S 17:53:23 53° W 17:57:13 10° NNW
Cosmos 44 3.4 17:48:35 10° NW 17:53:49 68° NE 17:55:25 45° ESE
CSL-04 Debris 4.2 17:51:53 30° SE 17:54:22 53° ENE 17:59:43 10° N
DEBRIS 3.9 17:39:11 10° W 17:54:43 89° N 17:56:23 45° E
Cosmos 2219 Rocket 3.9 17:52:41 10° WSW 17:57:33 29° NW 18:02:22 10° NNE
SL-08 R/B 4.5 17:52:02 10° N 17:58:07 55° ENE 18:04:06 10° SSE
SAR-Lupe-1 4.1 17:58:34 79° WNW 17:58:37 79° WNW 18:02:12 10° SSW
ISS -3.1 17:56:25 10° WSW 17:59:04 52° SW 17:59:04 52° SW
CZ-4B R/B 3.0 18:00:04 23° NNW 18:01:12 30° WNW 18:03:56 10° SW
YAOGAN 1 2.4 18:03:52 49° SSE 18:05:01 85° ENE 18:09:23 10° NNW
Cosmos 2237 Rocket 2.7 17:59:29 10° SW 18:05:02 59° WNW 18:08:37 22° NNE
Cosmos 1470 Rocket 4.5 18:05:49 10° N 18:08:28 36° N 18:08:28 36° N
USA 267 3.5 18:05:49 21° SE 18:10:22 64° SW 18:16:52 10° WNW
Okean-O 2.8 18:06:17 10° S 18:10:42 72° WSW 18:15:09 10° NNW
COSMO-SKYMED 1 3.2 18:10:59 24° N 18:13:29 56° WNW 18:17:43 10° SSW
SL-24 R/B 4.2 18:13:04 47° NNW 18:14:01 64° WNW 18:17:51 10° SSW
Cosmos 2218 Rocket 4.1 18:10:05 10° NNW 18:16:14 72° W 18:22:20 10° S
Cosmos 2369 Rocket 2.6 18:11:56 10° NNW 18:16:39 46° NNE 18:16:39 46° NNE
CSL-04 Rocket 3.5 18:18:44 67° SE 18:19:24 77° ENE 18:24:45 10° NNW
H-2A R/B 2.0 18:23:36 40° SSE 18:25:37 87° W 18:30:53 10° NNW
Cosmos 2366 rocket 4.4 18:22:32 10° NNW 18:28:40 61° W 18:34:42 10° S
Meteor 1-14 Rocket 4.3 18:29:05 10° NNW 18:35:01 81° W 18:38:09 30° S
Cosmos 1151 Rocket 4.4 18:43:06 10° SW 18:46:45 36° W 18:46:45 36° W
Cosmos 1943 Rocket 2.4 18:44:19 10° NNW 18:49:30 65° W 18:49:30 65° W
SL-16 R/B 2.5 18:46:29 10° SW 18:51:51 65° WNW 18:51:51 65° WNW
USA 281 4.4 18:46:21 10° S 18:52:23 39° WSW 18:58:29 10° NW
MOS 1 Rocket 4.1 18:53:31 55° NW 18:54:02 57° WNW 18:59:21 10° SSW
ARGOS 3.8 18:57:16 49° NW 18:57:16 49° NW 19:01:22 10° NNW
CZ-4 R/B 4.2 19:13:54 16° W 19:14:13 16° W 19:16:40 10° NW
USA 215 3.7 19:19:37 54° NNW 19:19:37 54° NNW 19:25:31 10° W
Cosmos 2369 Rocket 4.4 19:56:22 10° NW 19:58:28 20° WNW 19:58:28 20° WNW
